Regional Weather Roundup
Issued by NWS

Home | Current Version | Previous Version | Graphics & Text | Print | Product List | Glossary On
Versions: 1 2 3 4 5 6 7 8 9 10 11 12 13 14 15 16 17 18 19 20 21 22 23 24 25 26 27 28 29 30 31 32 33 34 35 36 37 38 39 40 41 42 43 44 45 46 47 48 49 50
000
ASUS44 KMEG 162000
RWRTN
TENNESSEE HOURLY STATE WEATHER ROUNDUP
NATIONAL WEATHER SERVICE MEMPHIS TN
200 PM CST SAT DEC 16 2017

TNZ002-004-019-021-049-052-054-088>092-162100-
WEST TENNESSEE

CITY           SKY/WX    TMP DP  RH WIND       PRES   REMARKS
MEMPHIS INTL   CLOUDY    54  30  40 SW12      30.16F
NWS MEMPHIS      N/A     53 N/A N/A MISG        N/A
JACKSON        CLOUDY    55  30  38 S13G20    30.16F
DYERSBURG      SUNNY     55  30  38 SW8       30.14F
$$

TNZ008-025-027-028-033-062-065-066-162100-
NORTH MIDDLE TENNESSEE

CITY           SKY/WX    TMP DP  RH WIND       PRES   REMARKS
NASHVILLE      PTSUNNY   52  28  39 S10       30.18F
CLARKSVILLE    CLOUDY    52  26  36 SW14      30.14F
SMYRNA         SUNNY     52  29  41 SW10      30.20F
CROSSVILLE     SUNNY     48  26  42 VRB7      30.18F
$$

TNZ061-075-076-078-094-096-097-162100-
SOUTH MIDDLE TENNESSEE

CITY           SKY/WX    TMP DP  RH WIND       PRES   REMARKS
WINCHESTER     SUNNY     50  28  43 SW3       30.21F
$$

TNZ017-018-042-046-047-162100-
NORTHEAST TENNESSEE

CITY           SKY/WX    TMP DP  RH WIND       PRES   REMARKS
TRI CITIES     MOSUNNY   45  27  49 W12       30.19F
$$

TNZ012-013-036-069-073-074-162100-
CENTRAL EAST TENNESSEE

CITY           SKY/WX    TMP DP  RH WIND       PRES   REMARKS
KNOXVILLE      PTSUNNY   46  30  53 SW12      30.21F
OAK RIDGE      SUNNY     48  29  47 VRB7      30.22F
$$

TNZ083-085-099-162100-
SOUTHEAST TENNESSEE

CITY           SKY/WX    TMP DP  RH WIND       PRES   REMARKS
CHATTANOOGA    CLOUDY    50  28  42 S8        30.24F
$$

SKY/WX REPORTED AS FAIR MEANS FEW OR NO CLOUDS BELOW
12 THOUSAND FEET.





USA.gov is the U.S. government's official web portal to all federal, state and local government web resources and services.